Weather Roundup
Issued by NWS Chicago, IL

Home | Current Version | Previous Version | Graphics & Text | Print | Product List | Glossary On
Versions: 1 2 3 4 5 6 7 8 9 10 11 12 13 14 15 16 17 18 19 20 21 22 23 24 25 26 27 28 29 30 31 32 33 34 35 36 37 38 39 40 41 42 43 44 45 46 47 48 49 50
000
NZUS59 KLOT 290702
HRRLOT

CHICAGO AREA WEATHER ROUNDUP
NATIONAL WEATHER SERVICE CHICAGO/ROMEOVILLE IL
200 AM CDT SAT AUG 29 2015

NOTE: "FAIR" INDICATES FEW OR NO CLOUDS BELOW 12,000 FEET WITH NO
SIGNIFICANT WEATHER AND/OR OBSTRUCTIONS TO VISIBILITY.

* THESE STATIONS ARE NOT UNDER NWS QUALITY CONTROL. THEY ALSO MAY NOT
  REPORT WEATHER SUCH AS PRECIPITATION OR FOG.

ILZ005-006-012>014-019>023-290800-
NORTHEAST ILLINOIS

CITY           SKY/WX    TMP DP  RH WIND       PRES   REMARKS
OHARE          CLOUDY    68  63  84 SE5       30.06F
MIDWAY         CLOUDY    70  58  65 SE7       30.06F
AURORA         CLOUDY    66  62  87 SE6       30.06F
LANSING*       MOCLDY    65  58  78 E3        30.08F
WAUKEGAN       LGT RAIN  64  63  96 E3        30.06F FOG
DUPAGE AIRPORT CLOUDY    67  60  78 SE5       30.05F
WHEELING       CLOUDY    67  63  87 CALM      30.08F
LEWIS AIRPORT* CLOUDY    65  59  81 SE6       30.07S
NORTHERLY IS     N/A     65  60  84 SE5         N/A
$$

WIZ051-052-058>065-066-070>072-290800-
SOUTHEAST WISCONSIN

CITY           SKY/WX    TMP DP  RH WIND       PRES   REMARKS
MILWAUKEE      LGT RAIN  63  62  97 SE9       30.06F FOG
KENOSHA*       LGT RAIN  65  63  93 E10       30.06F FOG
RACINE*        LGT RAIN  64  61  90 SE10      30.08F FOG
$$

INZ001>003-010>013-019-020-290800-
NORTHWEST INDIANA

CITY           SKY/WX    TMP DP  RH WIND       PRES   REMARKS
GARY*          PTCLDY    64  61  89 SE5       30.08F
MICHIGAN CITY* NOT AVBL
RENSSELAER*    NOT AVBL
$$

LMZ740>746-290800-
SOUTHERN LAKE MICHIGAN

STATION/POSITION TIME  SKY/WX   TEMP WIND        PRES    VSBY
                                AIR  DIR/SP/G
                 (UTC)          (F)  (DEG/KT/KT) (MB)    (MI)
HARRISON CRIB    0600            69  150/  6/  8   N/A
BURNHAM HARBOR   0600            66  170/  3       N/A
CALUMET HARBOR   NOT AVBL
BURNS HARBOR     0600            70  160/  7/ 10 1019.0F
MICHIGAN CITY    0600            69  110/  5/  6   N/A
$$

ABBREVIATIONS USED IN REMARKS
   TC - TEMPERATURE IN CELSIUS
  WCI - WIND CHILL INDEX
   HX - HEAT INDEX
  VSB - VISIBILITY
$$


USA.gov is the U.S. government's official web portal to all federal, state and local government web resources and services.